CAPE
23 61 147 214 287 306 245 216 129 149 147 183 254 112 59 43 0 0 0 6 4 104 18 5 0 0 0 0 0 0 0 0 0 0 0 0 0 0 0 0 0 0 0 0 0 0 0
22 62 46 87 118 242 268 178 62 147 164 18 258 46 65 7 3 1 0 7 6 148 18 19 0 0 0 0 0 0 0 0 0 0 0 0 0 0 0 0 0 0 0 0 0 0 0
16 27 17 27 43 111 119 122 157 189 33 41 36 35 25 0 0 0 0 6 14 67 41 0 0 0 0 0 0 0 0 0 0 0 0 0 0 0 0 0 0 0 0 0 0 0 0
23 15 9 20 55 98 66 67 74 71 101 62 33 29 0 0 0 3 9 120 120 112 24 0 0 0 0 0 0 0 0 0 0 0 0 0 0 0 0 0 0 0 0 0 0 0 0
17 14 18 20 28 76 127 94 91 105 86 62 7 0 0 16 341 146 149 202 86 22 0 0 0 0 0 0 0 0 0 0 0 0 0 0 0 0 0 0 0 0 0 0 0 0 0
15 12 22 27 27 61 21 45 224 234 71 5 21 68 95 177 276 136 114 20 8 0 0 0 0 0 0 0 0 0 0 0 0 0 0 0 0 0 0 0 0 0 0 0 0 0 0
15 17 5 4 7 9 26 120 204 331 164 44 151 115 121 83 75 22 0 0 0 0 0 0 0 0 0 0 0 0 0 0 0 0 0 0 0 0 0 0 0 0 0 0 0 0 0
11 6 7 11 13 9 5 75 134 199 87 76 22 54 38 13 0 0 0 0 1 0 0 0 0 0 0 0 0 0 0 0 0 0 0 0 0 0 0 0 0 0 0 0 0 0 0
14 3 8 13 16 18 3 18 59 70 87 64 63 47 2 1 0 0 0 4 0 0 0 0 0 0 0 0 0 0 0 0 0 0 0 0 0 0 0 0 1 1 0 0 0 0 0
13 8 4 8 11 9 10 12 16 34 42 29 18 5 0 0 0 0 0 0 0 0 0 0 0 0 0 0 0 0 0 0 0 0 0 0 0 0 0 0 0 0 0 0 0 2 0
14 12 4 2 8 2 1 0 0 0 0 0 0 0 0 0 0 0 0 0 0 0 0 0 0 0 0 0 0 0 0 0 0 0 0 0 0 0 0 0 0 0 0 0 0 13 12
16 7 6 2 4 2 0 0 0 0 0 0 0 0 0 0 0 0 0 0 0 0 0 0 0 0 0 0 0 0 1 0 0 3 0 0 0 0 0 0 0 0 0 0 8 9 2
19 5 6 3 3 2 0 0 0 0 1 0 0 0 0 0 0 0 0 0 0 0 0 0 0 0 0 0 0 0 0 0 0 0 0 0 0 0 0 0 0 1 1 0 0 0 0
10 10 1 2 1 0 0 0 2 2 0 0 0 0 0 0 0 0 0 0 0 0 0 0 0 0 0 0 0 0 0 0 0 0 2 0 0 0 0 0 0 6 2 3 0 0 0
1 1 0 0 0 0 0 1 7 4 0 0 0 0 0 0 0 0 0 0 0 0 0 0 0 0 0 0 0 0 0 0 0 0 0 0 0 0 0 0 0 0 7 11 31 0 1
0 0 0 0 0 0 0 0 2 10 0 0 0 0 0 0 0 0 0 0 0 0 0 0 0 0 0 0 0 0 0 0 0 0 0 0 2 0 0 0 0 0 0 0 0 0 0
0 0 0 0 0 0 0 0 0 1 0 0 0 0 0 0 0 0 0 0 0 0 0 0 0 0 0 0 0 0 0 0 0 0 0 0 0 0 0 0 0 0 0 0 0 0 0
20 9 0 0 0 0 0 0 0 2 0 0 0 0 0 0 0 0 0 0 0 0 0 0 0 0 0 0 0 0 0 0 0 0 0 0 0 0 0 0 0 0 0 0 0 0 0
0 12 1 0 0 0 0 0 0 0 0 0 0 0 0 0 0 0 0 0 0 0 0 0 0 0 0 0 0 0 0 0 0 0 0 0 0 0 0 0 0 0 0 0 0 0 0
0 3 2 0 0 0 0 0 0 0 0 0 0 0 0 0 0 0 0 0 0 0 0 0 0 0 0 0 0 0 0 0 0 0 0 0 0 0 0 0 0 0 0 0 0 0 0
0 0 3 0 0 0 0 0 0 0 0 0 0 0 0 0 0 0 0 0 0 0 0 0 0 0 0 0 0 0 0 0 0 0 0 0 0 0 0 0 0 0 0 0 0 0 0
0 0 0 0 0 0 0 0 0 0 0 0 0 0 0 0 0 0 0 0 0 0 0 0 0 0 0 0 0 0 0 0 0 0 0 0 0 0 0 0 0 0 0 0 0 0 0
0 0 0 1 0 0 0 0 0 0 0 0 0 0 0 0 0 0 0 0 0 0 0 0 0 0 0 0 0 0 0 0 0 0 0 0 0 0 0 0 0 0 0 0 0 0 0
0 0 0 0 0 0 0 0 0 0 0 0 0 0 0 0 0 0 0 0 0 0 0 0 0 0 0 0 0 0 0 0 0 0 0 0 0 0 0 0 0 0 0 0 0 0 0
0 0 0 0 0 0 0 0 0 0 0 0 0 0 0 0 0 0 0 0 0 0 0 0 0 0 0 0 0 0 0 0 0 0 0 0 0 0 0 0 0 0 0 0 0 0 0
12 0 0 0 0 0 0 0 0 0 0 0 0 0 0 0 0 0 0 0 0 0 0 0 0 0 0 0 0 0 0 0 0 0 0 0 0 0 0 0 0 0 0 0 0 0 0
20 1 0 0 0 0 0 0 0 0 0 0 0 0 0 0 0 0 0 0 0 0 0 0 0 0 0 0 0 0 0 0 0 0 0 0 0 0 0 0 0 0 0 0 0 0 0
18 10 0 0 0 0 0 0 0 0 0 0 0 0 0 0 0 0 0 0 0 0 0 0 0 0 0 0 0 0 0 0 0 0 0 0 0 0 0 0 0 0 0 0 0 0 0
4 15 10 0 0 0 0 0 5 12 11 0 0 0 0 0 0 0 0 0 0 0 0 0 0 0 0 0 0 0 0 0 0 0 0 0 0 0 0 0 0 0 0 0 0 0 0
CIN
-0 -49 -4 -2 -0 -0 -0 -0 -3 -1 -4 -3 -0 -1 -3 -2 -0 -0 -0 -0 -35 -8 -26 -39 -0 -0 -0 -0 -0 -0 -0 -0 -0 -0 -0 -0 -0 -0 -0 -0 -0 -0 -0 -0 -0 -0 -0
-0 -29 -27 -19 -1 -0 -0 -0 -13 -0 -0 -22 -0 -4 -5 -4 -0 -0 -0 -2 -7 -0 -23 -26 -0 -0 -0 -0 -0 -0 -0 -0 -0 -0 -0 -0 -0 -0 -0 -0 -0 -0 -0 -0 -0 -0 -0
-0 -1 -0 -0 -23 -3 -12 -10 -0 -0 -5 -1 -10 -2 -2 -0 -0 -0 -0 -22 -18 -5 -13 -1 -0 -0 -0 -0 -0 -0 -0 -0 -0 -0 -0 -0 -0 -0 -0 -0 -0 -0 -0 -0 -0 -0 -0
-0 -0 -0 -0 -0 -23 -20 -43 -6 -6 -8 -2 -72 -0 -0 -0 -3 -53 -40 -0 -0 -2 -4 -0 -0 -0 -0 -0 -0 -0 -0 -0 -0 -0 -0 -0 -0 -0 -0 -0 -0 -0 -0 -0 -0 -0 -0
-0 -0 -0 -0 -0 -8 -9 -13 -31 -11 -12 -25 -1 -0 -0 -13 -7 -4 -0 -0 -1 -13 -0 -0 -0 -0 -0 -0 -0 -0 -0 -0 -0 -0 -0 -0 -0 -0 -0 -0 -0 -0 -0 -0 -0 -0 -0
-0 -0 -0 -0 -0 -2 -0 -14 -0 -0 -19 -10 -31 -18 -3 -1 -1 -0 -0 -39 -26 -0 -0 -0 -0 -0 -0 -0 -0 -0 -0 -0 -0 -0 -0 -0 -0 -0 -0 -0 -0 -0 -0 -0 -0 -0 -0
-0 -0 -0 -0 -0 -0 -10 -0 -0 -0 -13 -0 -10 -0 -0 -0 -0 -8 -0 -0 -0 -0 -0 -0 -0 -0 -0 -0 -0 -0 -0 -0 -0 -0 -0 -0 -0 -0 -0 -0 -0 -0 -0 -0 -0 -0 -0
-0 -0 -0 -0 -0 -0 -0 -0 -0 -6 -0 -0 -5 -8 -0 -17 -0 -0 -0 -0 -0 -0 -0 -0 -0 -0 -0 -0 -0 -0 -0 -0 -0 -0 -0 -0 -0 -0 -0 -0 -0 -0 -0 -0 -0 -0 -0
-0 -0 -0 -0 -0 -0 -0 -2 -0 -0 -0 -0 -0 -0 -24 -20 -0 -0 -0 -0 -0 -0 -0 -0 -0 -0 -0 -0 -0 -0 -0 -0 -0 -0 -0 -0 -0 -0 -0 -0 -0 -0 -0 -0 -0 -0 -0
-0 -0 -0 -0 -0 -0 -0 -0 -1 -0 -0 -4 -12 -23 -0 -0 -0 -0 -0 -0 -0 -0 -0 -0 -0 -0 -0 -0 -0 -0 -0 -0 -0 -0 -0 -0 -0 -0 -0 -0 -0 -0 -0 -0 -0 -0 -0
-0 -0 -0 -0 -0 -0 -0 -0 -0 -0 -0 -0 -0 -0 -0 -0 -0 -0 -0 -0 -0 -0 -0 -0 -0 -0 -0 -0 -0 -0 -0 -0 -0 -0 -0 -0 -0 -0 -0 -0 -0 -0 -0 -0 -0 -0 -0
-0 -0 -0 -0 -0 -0 -0 -0 -0 -0 -0 -0 -0 -0 -0 -0 -0 -0 -0 -0 -0 -0 -0 -0 -0 -0 -0 -0 -0 -0 -8 -0 -0 -2 -0 -0 -0 -0 -0 -0 -0 -0 -0 -0 -1 -0 -0
-0 -0 -0 -0 -0 -0 -0 -0 -0 -0 -0 -0 -0 -0 -0 -0 -0 -0 -0 -0 -0 -0 -0 -0 -0 -0 -0 -0 -0 -0 -0 -0 -0 -1 -0 -0 -0 -0 -0 -0 -0 -0 -0 -0 -0 -0 -0
-0 -0 -0 -0 -0 -0 -0 -0 -0 -0 -0 -0 -0 -0 -0 -0 -0 -0 -0 -0 -0 -0 -0 -0 -0 -0 -0 -0 -0 -0 -0 -0 -0 -0 -0 -0 -0 -0 -0 -0 -0 -0 -0 -0 -0 -0 -0
-0 -0 -0 -0 -0 -0 -0 -0 -0 -0 -0 -0 -0 -0 -0 -0 -0 -0 -0 -0 -0 -0 -0 -0 -0 -0 -0 -0 -0 -0 -0 -0 -0 -0 -0 -0 -0 -0 -0 -0 -0 -0 -0 -1 -0 -0 -0
-0 -0 -0 -0 -0 -0 -0 -0 -0 -0 -0 -0 -0 -0 -0 -0 -0 -0 -0 -0 -0 -0 -0 -0 -0 -0 -0 -0 -0 -0 -0 -0 -0 -0 -0 -0 -0 -0 -0 -0 -0 -0 -0 -0 -0 -0 -0
-0 -0 -0 -0 -0 -0 -0 -0 -0 -0 -0 -0 -0 -0 -0 -0 -0 -0 -0 -0 -0 -0 -0 -0 -0 -0 -0 -0 -0 -0 -0 -0 -0 -0 -0 -0 -0 -0 -0 -0 -0 -0 -0 -0 -0 -0 -0
-0 -0 -0 -0 -0 -0 -0 -0 -0 -0 -0 -0 -0 -0 -0 -0 -0 -0 -0 -0 -0 -0 -0 -0 -0 -0 -0 -0 -0 -0 -0 -0 -0 -0 -0 -0 -0 -0 -0 -0 -0 -0 -0 -0 -0 -0 -0
-0 -0 -0 -0 -0 -0 -0 -0 -0 -0 -0 -0 -0 -0 -0 -0 -0 -0 -0 -0 -0 -0 -0 -0 -0 -0 -0 -0 -0 -0 -0 -0 -0 -0 -0 -0 -0 -0 -0 -0 -0 -0 -0 -0 -0 -0 -0
-0 -0 -0 -0 -0 -0 -0 -0 -0 -0 -0 -0 -0 -0 -0 -0 -0 -0 -0 -0 -0 -0 -0 -0 -0 -0 -0 -0 -0 -0 -0 -0 -0 -0 -0 -0 -0 -0 -0 -0 -0 -0 -0 -0 -0 -0 -0
-0 -0 -0 -0 -0 -0 -0 -0 -0 -0 -0 -0 -0 -0 -0 -0 -0 -0 -0 -0 -0 -0 -0 -0 -0 -0 -0 -0 -0 -0 -0 -0 -0 -0 -0 -0 -0 -0 -0 -0 -0 -0 -0 -0 -0 -0 -0
-0 -0 -0 -0 -0 -0 -0 -0 -0 -0 -0 -0 -0 -0 -0 -0 -0 -0 -0 -0 -0 -0 -0 -0 -0 -0 -0 -0 -0 -0 -0 -0 -0 -0 -0 -0 -0 -0 -0 -0 -0 -0 -0 -0 -0 -0 -0
-0 -0 -0 -0 -0 -0 -0 -0 -0 -0 -0 -0 -0 -0 -0 -0 -0 -0 -0 -0 -0 -0 -0 -0 -0 -0 -0 -0 -0 -0 -0 -0 -0 -0 -0 -0 -0 -0 -0 -0 -0 -0 -0 -0 -0 -0 -0
-0 -0 -0 -0 -0 -0 -0 -0 -0 -0 -0 -0 -0 -0 -0 -0 -0 -0 -0 -0 -0 -0 -0 -0 -0 -0 -0 -0 -0 -0 -0 -0 -0 -0 -0 -0 -0 -0 -0 -0 -0 -0 -0 -0 -0 -0 -0
-0 -0 -0 -0 -0 -0 -0 -0 -0 -0 -0 -0 -0 -0 -0 -0 -0 -0 -0 -0 -0 -0 -0 -0 -0 -0 -0 -0 -0 -0 -0 -0 -0 -0 -0 -0 -0 -0 -0 -0 -0 -0 -0 -0 -0 -0 -0
-1 -0 -0 -0 -0 -0 -0 -0 -0 -0 -0 -0 -0 -0 -0 -0 -0 -0 -0 -0 -0 -0 -0 -0 -0 -0 -0 -0 -0 -0 -0 -0 -0 -0 -0 -0 -0 -0 -0 -0 -0 -0 -0 -0 -0 -0 -0
-1 -1 -0 -0 -0 -0 -0 -0 -0 -0 -0 -0 -0 -0 -0 -0 -0 -0 -0 -0 -0 -0 -0 -0 -0 -0 -0 -0 -0 -0 -0 -0 -0 -0 -0 -0 -0 -0 -0 -0 -0 -0 -0 -0 -0 -0 -0
-0 -0 -0 -0 -0 -0 -0 -0 -0 -0 -0 -0 -0 -0 -0 -0 -0 -0 -0 -0 -0 -0 -0 -0 -0 -0 -0 -0 -0 -0 -0 -0 -0 -0 -0 -0 -0 -0 -0 -0 -0 -0 -0 -0 -0 -0 -0
-0 -0 -0 -0 -0 -0 -0 -0 -0 -1 -1 -0 -0 -0 -0 -0 -0 -0 -0 -0 -0 -0 -0 -0 -0 -0 -0 -0 -0 -0 -0 -0 -0 -0 -0 -0 -0 -0 -0 -0 -0 -0 -0 -0 -0 -0 -0
Wind_Speed
19 21 22 22 20 18 17 14 14 13 11 11 12 10 3 4 5 4 1 2 3 9 18 11 11 8 4 8 4 6 14 7 9 8 6 4 6 3 4 2 1 2 0 4 4 9 8
21 21 23 21 20 20 17 16 15 12 11 11 13 10 5 5 5 5 3 3 4 16 20 13 11 4 5 10 3 3 7 7 7 7 8 7 3 3 5 2 2 2 3 6 6 6 7
22 22 22 22 21 20 20 18 16 15 16 12 5 8 5 3 2 5 6 2 4 19 20 15 9 7 18 6 2 6 7 4 4 4 6 4 2 5 3 3 2 1 5 5 4 3 4
22 23 22 21 21 23 19 18 17 15 11 7 7 7 3 3 5 6 7 12 23 21 17 12 7 6 7 4 2 7 3 5 7 5 4 4 6 6 3 1 4 3 3 5 2 3 3
23 23 20 21 22 22 22 21 18 16 15 13 10 8 7 10 6 14 16 25 20 16 12 6 8 8 5 4 4 2 3 4 3 5 7 5 5 3 4 3 3 6 2 3 8 1 3
23 23 22 23 23 24 23 21 18 12 10 14 11 8 12 22 26 27 25 17 13 8 9 4 4 9 4 1 1 2 3 6 6 3 5 7 5 4 4 3 3 2 3 4 7 3 2
21 23 23 23 23 23 22 23 23 14 18 19 25 27 21 30 24 21 10 5 5 8 10 5 1 7 4 0 4 6 3 3 4 7 4 4 6 0 4 2 1 1 2 10 11 10 6
20 21 22 23 23 23 23 25 27 28 23 22 22 19 20 20 14 3 3 5 1 5 11 9 7 7 3 1 3 4 3 5 5 2 2 4 0 3 2 2 1 1 7 9 12 4 7
18 20 21 23 25 27 25 24 24 25 25 22 20 16 10 11 6 9 8 5 5 2 7 4 3 4 2 4 3 3 3 2 1 3 2 3 3 3 2 2 7 9 9 8 10 7 11
17 18 19 21 23 24 23 22 21 20 19 19 18 16 11 4 6 2 4 6 5 3 8 8 6 3 3 2 4 1 2 1 1 2 2 3 2 1 2 5 6 6 7 13 11 7 4
16 17 16 18 20 21 20 21 21 20 18 16 12 10 13 8 4 4 4 6 5 3 9 5 4 2 2 3 2 1 1 2 1 4 4 5 2 3 4 5 8 9 1 7 8 9 6
15 15 15 14 15 16 17 17 18 17 14 14 15 11 5 6 4 1 5 5 4 9 1 5 2 2 2 2 2 1 1 2 1 2 5 7 3 4 5 4 11 9 10 9 8 3 3
13 13 14 13 13 12 12 12 14 13 13 9 9 13 7 2 0 5 3 4 7 8 2 3 1 1 1 2 3 2 1 3 1 4 4 4 4 4 2 4 2 5 4 3 3 1 4
12 12 12 11 10 10 12 13 15 14 12 7 5 8 5 2 3 3 3 7 11 2 3 1 1 2 2 1 1 2 1 3 2 1 2 4 8 5 6 5 3 2 1 2 4 4 4
10 11 11 10 10 9 10 13 15 15 9 7 5 4 3 5 5 2 6 7 7 5 4 4 1 2 3 1 1 1 3 2 4 7 1 3 7 2 6 3 2 2 2 2 4 2 3
9 9 10 11 10 10 10 12 14 15 9 5 4 2 3 7 4 5 7 3 1 1 2 1 3 2 1 2 1 2 2 2 2 6 1 1 7 4 3 2 4 3 3 2 1 5 4
10 8 8 10 11 11 12 12 15 16 9 3 4 4 4 5 3 6 5 3 2 5 3 1 1 1 3 2 1 2 2 3 2 1 4 2 2 7 2 2 0 1 2 2 1 2 2
14 12 6 7 10 11 13 14 15 17 6 7 3 4 2 2 6 2 2 1 1 1 0 1 2 3 2 1 2 3 4 5 6 5 3 4 3 6 8 3 2 2 3 3 2 2 1
12 14 9 5 7 9 11 13 14 14 9 2 3 1 3 4 4 3 2 3 2 2 2 2 2 1 1 2 2 3 2 1 5 5 4 3 2 6 8 5 2 2 2 2 1 2 4
9 13 12 9 6 7 9 11 12 13 6 5 3 3 5 6 3 4 2 2 1 1 1 1 2 1 2 2 2 3 2 1 4 2 2 4 3 7 7 7 2 5 3 3 2 2 2
8 9 13 12 8 5 7 9 12 11 7 4 4 1 2 1 2 5 4 1 2 3 1 3 1 3 1 2 3 3 2 4 1 2 2 4 5 5 8 13 6 8 10 6 6 5 6
7 7 9 12 9 8 6 8 9 10 4 5 3 4 3 2 1 4 1 6 3 3 3 1 1 3 2 4 6 4 1 3 5 3 1 1 4 2 7 3 5 7 10 9 6 5 8
7 8 6 11 9 7 5 8 10 10 6 3 1 1 4 2 2 3 5 6 8 5 3 4 4 1 4 8 6 7 6 4 3 1 2 0 2 4 7 2 7 6 7 8 6 5 6
8 7 7 7 10 6 6 7 9 8 6 3 2 3 4 2 2 5 2 4 7 6 5 3 4 3 4 3 4 2 3 6 6 7 6 2 1 2 6 8 4 4 1 4 6 6 9
10 10 8 6 10 9 6 5 6 6 5 3 1 3 3 2 3 4 5 5 3 4 4 5 6 7 1 5 3 6 4 2 3 3 6 6 3 2 2 2 10 1 3 6 6 7 7
12 12 12 9 8 9 8 6 5 3 5 4 2 2 3 2 6 1 2 3 4 3 4 5 2 2 4 3 2 3 4 3 3 1 5 4 2 2 2 2 6 5 3 4 3 5 4
15 13 13 12 9 9 8 9 6 5 3 3 2 4 4 1 4 4 4 5 4 1 2 4 2 2 2 2 2 4 5 3 4 5 6 3 3 5 4 5 11 6 4 5 2 7 4
15 16 14 13 11 10 10 9 9 7 6 3 1 4 5 3 5 7 4 4 2 1 3 3 3 2 2 2 3 3 3 4 2 5 6 8 7 5 3 4 10 6 5 7 6 1 2
17 16 16 15 13 11 11 10 10 11 9 5 1 1 2 3 6 5 7 6 8 9 6 2 2 3 5 3 2 2 3 1 3 5 0 4 7 6 11 9 4 7 5 4 1 3 4
Wind_Direction
22 22 18 20 27 32 33 42 34 31 50 59 133 121 259 198 148 151 101 224 101 158 134 147 141 137 92 59 70 312 50 29 35 56 55 70 54 88 94 97 56 122 211 283 255 274 246
27 33 41 39 32 35 41 37 31 39 62 63 115 123 237 147 149 162 160 87 117 163 142 156 144 128 81 83 318 8 57 42 40 60 47 49 84 86 100 86 72 262 262 263 277 274 264
36 47 53 48 42 34 43 48 44 66 69 70 64 127 118 111 222 175 160 181 214 134 131 140 120 108 65 73 328 66 61 29 18 60 71 27 92 81 136 116 304 311 321 311 218 218 287
43 54 54 46 42 37 46 47 49 49 89 108 81 78 54 308 262 213 151 136 127 126 124 125 103 78 79 322 251 50 40 40 39 47 83 44 61 95 59 87 22 43 41 345 250 339 313
50 54 49 46 43 42 46 45 40 45 50 48 36 13 358 340 151 158 125 120 108 109 112 103 52 85 81 308 47 337 52 91 43 31 31 54 60 75 28 62 15 14 279 284 308 200 268
55 57 52 52 55 47 42 32 24 16 60 48 0 355 91 94 93 97 98 97 104 57 26 38 76 66 347 112 63 35 30 65 56 11 22 36 42 60 34 66 239 254 326 289 252 268 328
56 57 53 50 46 47 43 36 30 48 94 82 76 61 69 86 78 82 83 8 25 29 32 78 348 73 99 20 38 25 5 52 41 54 33 8 56 227 225 202 81 100 261 276 271 268 296
58 56 56 51 47 46 55 47 51 71 89 85 75 71 68 66 48 50 91 84 39 152 65 31 53 64 84 93 79 15 31 52 45 357 300 19 121 211 164 141 211 198 284 290 291 279 204
47 56 58 57 56 61 66 55 57 69 64 62 59 64 51 43 29 42 72 54 317 317 90 19 37 57 354 53 64 15 29 110 105 344 344 154 259 123 192 252 290 281 254 258 240 317 272
41 50 60 61 66 65 66 62 58 58 55 51 41 33 12 350 47 337 40 327 327 277 82 346 0 16 25 88 55 5 48 103 356 298 342 237 320 210 247 264 222 278 217 245 271 293 309
42 39 54 63 72 76 66 65 60 50 49 51 43 40 36 50 125 50 339 327 312 56 70 304 329 289 30 67 160 283 247 70 353 351 10 267 257 251 271 243 164 240 265 269 262 264 288
39 36 39 56 72 81 85 74 60 51 43 33 33 42 96 22 47 5 312 318 36 45 329 317 301 18 348 186 208 304 326 29 55 291 210 252 204 247 236 278 228 264 307 278 255 258 254
37 36 32 45 58 69 75 64 53 43 33 35 37 38 55 69 246 327 335 43 45 86 258 262 158 91 324 249 203 194 38 317 258 344 354 306 217 249 202 290 220 231 273 317 345 336 240
22 22 29 25 40 52 41 31 29 22 22 36 38 28 11 82 311 336 51 46 67 249 210 341 103 357 291 247 149 153 305 313 201 188 306 356 327 196 167 220 233 212 274 315 294 312 303
28 16 4 14 13 26 28 23 17 17 45 66 61 356 17 336 350 38 67 50 173 207 172 152 115 241 290 355 182 326 200 246 208 193 54 336 273 282 193 191 196 251 276 207 274 259 287
8 13 4 354 1 359 5 9 11 6 9 100 94 42 304 328 1 56 71 108 51 246 285 225 207 184 290 290 50 19 344 227 247 193 180 238 288 240 299 155 239 228 275 335 3 347 316
342 359 2 356 354 350 348 355 358 4 8 121 57 60 271 345 57 46 104 184 199 218 191 197 300 313 263 337 186 276 256 275 231 144 160 200 192 286 320 188 182 319 353 313 337 172 299
350 337 342 350 350 348 345 344 352 359 19 42 95 60 299 18 53 38 68 136 199 333 82 197 171 218 219 183 250 238 234 223 180 162 198 206 181 270 238 222 202 245 189 151 129 305 263
350 343 314 323 339 341 340 337 343 359 30 90 85 259 317 100 82 26 327 19 354 20 24 1 308 353 356 268 304 220 251 288 176 173 187 183 272 319 351 5 7 198 189 207 127 77 232
345 343 341 308 311 328 328 333 338 352 39 83 62 36 342 45 143 104 31 1 336 330 155 321 307 120 9 318 217 284 285 295 318 227 248 155 198 195 203 228 197 281 230 169 186 149 200
330 344 335 339 305 330 330 335 337 340 6 97 40 289 200 217 0 127 126 340 338 345 19 0 110 92 125 296 307 241 240 300 305 344 116 161 253 195 251 252 237 247 254 212 187 224 184
307 326 335 329 339 324 346 356 349 345 22 74 112 130 353 147 313 134 154 170 187 270 194 258 140 330 221 233 214 259 227 226 242 334 105 6 270 327 275 252 200 261 238 226 221 215 251
281 298 322 320 331 341 10 8 5 9 57 88 281 77 107 292 156 124 219 187 181 153 228 221 196 203 235 233 215 224 217 236 222 291 296 298 344 4 273 321 297 291 231 186 200 194 163
251 265 285 307 308 325 329 359 9 28 73 123 181 102 88 249 203 210 204 210 199 211 190 197 178 178 248 357 295 270 230 242 225 230 195 221 10 168 277 335 352 251 134 190 225 237 221
238 246 250 262 290 291 289 307 356 41 66 90 137 112 123 259 218 271 211 211 258 256 248 228 217 201 83 21 340 335 330 297 206 217 204 191 135 256 293 272 287 225 209 184 177 285 211
237 237 241 234 253 277 286 286 297 7 103 100 133 122 111 111 249 155 176 181 201 215 322 252 296 137 87 87 46 265 249 220 291 327 78 94 31 161 171 236 243 233 196 181 146 294 205
232 237 241 229 226 250 268 280 264 263 176 119 166 139 101 157 262 150 197 185 161 116 230 291 262 114 41 120 198 212 260 198 239 211 177 166 177 197 225 275 286 234 164 150 126 230 191
239 230 233 234 218 225 244 253 263 254 202 137 230 173 135 180 261 194 223 154 96 151 171 245 34 326 71 180 184 221 210 236 280 235 188 175 156 201 143 211 280 148 76 179 218 166 224
237 234 227 231 224 217 232 243 251 253 220 157 242 222 142 161 236 195 217 210 191 189 158 221 222 178 204 117 214 158 245 199 199 273 1 253 198 188 190 215 240 214 228 241 194 228 217